Calgary Springbank,

8:00 PM MST on January 21, 2018 (GMT -0700)
Calgary Springbank

Weather History for CYBW - September, 2012

Change the Weather History Date:

Thursday, September 27, 2012

  Actual Average Record
Temperature  
Mean Temperature 50 °F -  
Max Temperature 70 °F 49 °F 75 °F (2010)
Min Temperature 29 °F 27 °F 19 °F (2013)
Degree Days  
Heating Degree Days 16    
Moisture  
Dew Point 41 °F    
Average Humidity 64    
Maximum Humidity 100    
Minimum Humidity 28    
Precipitation  
Precipitation 0.00 in - - ()
Sea Level Pressure  
Sea Level Pressure 30.13 in    
Wind  
Wind Speed 5 mph ()    
Max Wind Speed 13 mph    
Max Gust Speed -    
Visibility 13.3 miles    
Events Fog    
Averages and records for this station are not official NWS values.
T = Trace of Precipitation, MM = Missing Value Source: Averaged Metar Reports

Daily Weather History Graph

Daily Weather History Graph

Search for Another Location

Airport or City:

Trip Planner

Search our weather history database for the weather conditions in past years. The results will help you decide how hot, cold, wet, or windy it might be!

Date:

Astronomy

Sep. 27, 2012 Rise Set
Actual Time 7:32 AM MDT 7:22 PM MDT
Civil Twilight 6:59 AM MDT 7:55 PM MDT
Nautical Twilight 6:20 AM MDT 8:34 PM MDT
Astronomical Twilight 5:41 AM MDT 9:14 PM MDT
Moon 6:04 PM MDT (9/27) 4:54 AM MDT (9/27)
Length of Visible Light 12h 56m
Length of Day
11h 50m
Waxing Gibbous, 94% of the Moon is Illuminated
Sep 27
Waxing Gibbous
Sep 29
Full
Oct 8
Last Quarter
Oct 15
New
Oct 21
First Quarter

Hourly Weather History & Observations

Time (MDT) Temp. Windchill Dew Point Humidity Pressure Visibility Wind Dir Wind Speed Gust Speed Precip Events Conditions
5:00 AM 35.6 °F - 35.6 °F 100% 30.20 in 10.0 mi NNW 2.3 mph - N/A Fog Patches of Fog
7:00 AM 32.0 °F - 32.0 °F 100% 30.21 in 15.0 mi WNW 2.3 mph - N/A Fog Shallow Fog
7:26 AM 30.2 °F 25.4 °F 30.2 °F 100% 30.21 in 20.0 mi NW 4.6 mph - N/A   Partly Cloudy
8:00 AM 32.0 °F 28.7 °F 32.0 °F 100% 30.22 in 30.0 mi West 3.5 mph - N/A   Partly Cloudy
9:00 AM 39.2 °F - 39.2 °F 100% 30.21 in 30.0 mi Calm Calm - N/A   Partly Cloudy
10:00 AM 46.4 °F - 44.6 °F 93% 30.19 in 30.0 mi Calm Calm - N/A   Partly Cloudy
11:00 AM 53.6 °F - 42.8 °F 67% 30.17 in 30.0 mi SSE 3.5 mph - N/A   Partly Cloudy
12:00 PM 60 °F - 43 °F 42% 30.14 in 28 mi SSE 5.8 mph - -   Scattered Clouds
12:00 PM 59.0 °F - 42.8 °F 55% 30.14 in 30.0 mi South 6.9 mph - N/A   Partly Cloudy
1:00 PM 66.2 °F - 42.8 °F 43% 30.12 in 30.0 mi SSE 10.4 mph - N/A   Partly Cloudy
2:00 PM 68.0 °F - 46.4 °F 46% 30.11 in 30.0 mi SSE 9.2 mph - N/A   Clear
3:00 PM 69.8 °F - 41.0 °F 35% 30.09 in 30.0 mi South 11.5 mph - N/A   Partly Cloudy
4:00 PM 69.8 °F - 41.0 °F 35% 30.09 in 30.0 mi SE 11.5 mph - N/A   Partly Cloudy
5:00 PM 69.8 °F - 41.0 °F 35% 30.07 in 30.0 mi SE 12.7 mph - N/A   Partly Cloudy
6:00 PM 68 °F - 42 °F 28% 30.08 in 28 mi SSE 11.5 mph - -   Clear
6:00 PM 68.0 °F - 42.8 °F 40% 30.08 in 30.0 mi SSE 11.5 mph - N/A   Partly Cloudy
7:00 PM 62.6 °F - 42.8 °F 48% 30.09 in 30.0 mi SSE 10.4 mph - N/A   Clear
8:00 PM 57.2 °F - 44.6 °F 63% 30.11 in 15.0 mi South 11.5 mph - N/A   Partly Cloudy
9:00 PM 51.8 °F - 44.6 °F 76% 30.10 in 10.0 mi South 9.2 mph - N/A   Clear
10:00 PM 48.2 °F - 42.8 °F 82% 30.02 in 10.0 mi South 10.4 mph - N/A   Clear